GW6334 Weather Reports


time (UTC)temp
C
wind
direction
speed
KPH
gust
KPH
rain 1hr
cm
rain 24hr
cm
rain mn
cm
humidity
%
barometer
mb
20260508004528 11 185 0.0 0.0 0.00 0.00 0.00 45 1007.3
20260508003026 11 185 0.0 1.6 0.00 0.00 0.00 44 1007.1
20260508001528 11 185 0.0 1.6 0.00 0.00 0.00 41 1006.9
20260508000025 12 203 0.0 1.6 0.00 0.00 0.00 40 1006.8
20260507234535 12 220 0.0 6.4 0.00 0.00 0.00 38 1006.7
20260507233008 13 193 0.0 4.8 0.00 0.00 0.00 38 1006.6
20260507231515 13 195 1.6 4.8 0.00 0.00 0.00 37 1006.5
20260507230008 13 154 1.6 8.0 0.00 0.00 0.00 35 1006.5
20260507224507 14 218 1.6 8.0 0.00 0.00 0.00 35 1006.3
20260507223008 15 231 1.6 6.4 0.00 0.00 0.00 33 1006.2
20260507221509 15 191 1.6 8.0 0.00 0.00 0.00 34 1006.0
20260507220008 15 229 1.6 8.0 0.00 0.00 0.00 35 1006.0
20260507214503 15 166 3.2 11.3 0.00 0.00 0.00 34 1005.9
20260507213011 15 242 3.2 9.7 0.00 0.00 0.00 35 1005.7
20260507211510 15 239 1.6 9.7 0.00 0.00 0.00 32 1005.7
20260507210011 16 235 3.2 8.0 0.00 0.00 0.00 32 1005.6
20260507204512 16 190 1.6 9.7 0.00 0.00 0.00 34 1005.6
20260507203007 16 229 3.2 12.9 0.00 0.00 0.00 33 1005.6
20260507201513 16 172 3.2 8.0 0.00 0.00 0.00 33 1005.6
20260507200009 17 185 3.2 12.9 0.00 0.00 0.00 33 1005.7
20260507194513 17 193 3.2 8.0 0.00 0.00 0.00 33 1005.8
20260507193019 17 160 3.2 8.0 0.00 0.00 0.00 32 1006.0
20260507191508 17 238 3.2 6.4 0.00 0.00 0.00 30 1006.1
20260507190014 17 189 1.6 12.9 0.00 0.00 0.00 32 1006.2
20260507184512 17 141 3.2 9.7 0.00 0.00 0.00 28 1006.4
20260507183020 17 222 3.2 11.3 0.00 0.00 0.00 32 1006.4
20260507181505 18 191 4.8 11.3 0.00 0.00 0.00 29 1006.6
20260507180015 18 238 1.6 12.9 0.00 0.00 0.00 36 1006.5
20260507174515 17 151 3.2 14.5 0.00 0.00 0.00 37 1006.6
20260507173018 17 230 1.6 14.5 0.00 0.00 0.00 37 1006.5
20260507171527 17 234 1.6 9.7 0.00 0.00 0.00 40 1006.6
20260507170010 17 121 3.2 9.7 0.00 0.00 0.00 44 1006.9
20260507164514 17 225 3.2 9.7 0.00 0.00 0.00 43 1006.9
20260507163015 16 214 3.2 8.0 0.00 0.00 0.00 48 1007.0
20260507161518 16 153 1.6 9.7 0.00 0.00 0.00 53 1007.2
20260507160028 15 181 1.6 6.4 0.00 0.00 0.00 54 1007.3
20260507154512 15 216 1.6 4.8 0.00 0.00 0.00 58 1007.3
20260507153017 15 255 4.8 8.0 0.00 0.00 0.00 55 1007.3
20260507151517 15 222 3.2 8.0 0.00 0.00 0.00 57 1007.5
20260507150018 14 227 1.6 3.2 0.00 0.00 0.00 61 1007.7
20260507144520 13 237 4.8 9.7 0.00 0.00 0.00 57 1007.9
20260507143032 13 172 1.6 6.4 0.00 0.00 0.00 60 1008.0
20260507141519 13 223 0.0 4.8 0.00 0.00 0.00 62 1008.1
20260507140025 13 237 1.6 6.4 0.00 0.00 0.00 61 1008.1
20260507134520 12 247 1.6 6.4 0.00 0.00 0.00 63 1008.0
20260507133020 12 220 3.2 8.0 0.00 0.00 0.00 66 1008.2
20260507131515 11 214 1.6 4.8 0.00 0.00 0.00 68 1008.4
20260507130037 11 230 1.6 3.2 0.00 0.00 0.00 75 1008.4
20260507124523 10 208 0.0 3.2 0.00 0.00 0.00 80 1008.7
20260507123022 10 233 1.6 3.2 0.00 0.00 0.00 83 1008.6
20260507121523 9 231 1.6 4.8 0.00 0.00 0.00 88 1008.6
20260507120018 8 226 0.0 3.2 0.00 0.00 0.00 89 1008.4
20260507114529 8 188 0.0 1.6 0.00 0.00 0.00 90 1008.6
20260507113023 8 193 0.0 1.6 0.00 0.00 0.00 91 1008.5
20260507111514 8 207 0.0 1.6 0.00 0.00 0.00 92 1008.5
20260507110021 8 207 0.0 0.0 0.00 0.00 0.00 93 1008.2
20260507104525 8 207 0.0 1.6 0.00 0.00 0.00 92 1008.5
20260507103027 8 227 0.0 1.6 0.00 0.00 0.00 92 1008.1
20260507101510 8 233 0.0 0.0 0.00 0.00 0.00 92 1007.7
20260507100016 8 233 0.0 1.6 0.00 0.00 0.00 91 1007.7
20260507094528 8 233 0.0 3.2 0.00 0.00 0.00 91 1007.5
20260507093023 8 227 0.0 1.6 0.00 0.00 0.00 91 1007.9
20260507091534 8 232 0.0 3.2 0.00 0.00 0.00 90 1007.7
20260507090014 9 181 0.0 1.6 0.00 0.00 0.00 91 1008.0
20260507084520 9 176 0.0 1.6 0.00 0.00 0.00 92 1007.8
20260507083024 9 181 0.0 1.6 0.00 0.00 0.00 91 1007.7
20260507081525 10 227 0.0 0.0 0.00 0.00 0.00 91 1007.3
20260507080028 10 227 0.0 3.2 0.00 0.00 0.00 90 1007.5
20260507074516 10 239 1.6 4.8 0.00 0.00 0.00 89 1007.3
20260507073020 11 228 0.0 1.6 0.00 0.00 0.00 90 1007.5
20260507071528 11 227 0.0 1.6 0.00 0.00 0.00 89 1006.6
20260507070031 11 226 0.0 0.0 0.00 0.00 0.00 90 1006.7
20260507064539 11 226 0.0 3.2 0.00 0.00 0.00 90 1006.6
20260507063020 11 216 0.0 0.0 0.00 0.00 0.00 91 1006.7
20260507061524 11 227 0.0 3.2 0.00 0.00 0.00 91 1006.6
20260507060026 11 213 0.0 1.6 0.00 0.00 0.00 91 1006.7
20260507054527 12 215 0.0 3.2 0.00 0.00 0.00 90 1006.8
20260507053026 12 219 0.0 3.2 0.00 0.00 0.00 91 1007.0
20260507051524 12 234 1.6 6.4 0.00 0.00 0.00 91 1006.8
20260507050037 12 218 0.0 6.4 0.00 0.00 0.00 91 1006.9
20260507044529 13 217 0.0 3.2 0.00 0.00 0.00 93 1007.0
20260507043026 13 278 0.0 1.6 0.00 0.00 0.00 93 1006.9
20260507041529 13 180 0.0 3.2 0.00 0.00 0.00 93 1006.9
20260507040026 13 186 0.0 3.2 0.00 0.00 0.00 94 1007.0
20260507034526 14 181 1.6 3.2 0.00 0.00 0.00 94 1006.8
20260507033028 14 180 0.0 1.6 0.00 0.00 0.00 93 1006.5
20260507031525 14 180 1.6 6.4 0.00 0.00 0.00 93 1006.5
20260507030029 14 188 1.6 4.8 0.00 0.00 0.00 92 1006.1
20260507024530 14 159 1.6 4.8 0.00 0.00 0.00 93 1006.1
20260507023026 14 180 1.6 9.7 0.00 0.00 0.00 93 1006.4
20260507021527 14 184 1.6 4.8 0.00 0.00 0.00 93 1006.3
20260507020029 14 190 0.0 3.2 0.00 0.00 0.00 93 1006.1
20260507014521 13 188 1.6 4.8 0.00 0.00 0.00 93 1006.2
20260507013025 13 171 0.0 4.8 0.00 0.00 0.00 93 1006.2
20260507011512 13 221 0.0 4.8 0.00 0.00 0.00 93 1006.3
20260507010021 13 156 1.6 4.8 0.00 0.00 0.00 93 1006.4